UFO 2 (USA 95)

Last updated on Mon Oct 07 2024 00:02:37 GMT+0000 (Coordinated Universal Time)

1 22787U 93056A 24279.85257534 .00000136 00000+0 00000+0 0 9990 2 22787 11.6890 6.8003 0004938 199.5673 144.2265 1.00270983112440
UTC large
Height (km)
Speed (km/s)
/
Latitude / Longitude
Inclination (degrees)
Orbital Period (minutes)
Azimuth
Elevation
Range (km)
Doppler Factor

Next 0 passes for location: London (51.5072 / 0.1276)

Sorry there are no passes over London.